{"data":{"norad_id":65198,"epoch":"2026-09-20T14:57:53.907840Z","epoch_age_seconds":109708,"freshness":"FRESH","line1":"1 65198U 25176A   26263.62354060  .00019599  00000+0  58962-3 0  9990","line2":"2 65198  53.1587 328.8445 0001226  77.5794 282.5345 15.34403006 62940","mean_motion":15.34403006,"eccentricity":0.0001226,"inclination_deg":53.1587,"raan_deg":328.8445,"arg_perigee_deg":77.5794,"mean_anomaly_deg":282.5345,"bstar":0.00058962,"rev_number":6294,"period_min":93.847574227184,"perigee_km":461.85561983812,"apogee_km":463.53299167429,"semimajor_km":6840.8313057562,"source":"CELESTRAK","updated_at":"2026-09-21T09:00:35.532816Z"}}